Preview of NWS' New Version of Forecast
This preview is not operational and should not be used for support decisions.

Regional Weather Roundup (RWR)

Issued by National Weather Service (NWS)

                            
000
ASUS45 KABQ 181501
RWRNM 
NEW MEXICO REGIONAL WEATHER ROUNDUP
NATIONAL WEATHER SERVICE ALBUQUERQUE NM
900 AM MDT TUE JUN 18 2019

NOTE: "FAIR" MEANS FEW OR NO CLOUDS BELOW 12,000 FEET AGL WITH NO
       SIGNIFICANT WEATHER OR OBSTRUCTIONS TO VISION.

      THIS PRODUCT IS RELEASED AS TWO VERSIONS.  ONE VERSION NEAR
      THE TOP OF THE HOUR CONTAINING PRELIMINARY DATA FROM ALBUQUERQUE
      AND OTHER STATIONS.  A FINAL VERSION WITH ADDITIONAL DATA IS 
      ISSUED ABOUT 10 MINUTES AFTER THE HOUR.
 
NMZ501-503-504-510>518-181600-
NORTHWEST PLATEAU/NORTHCENTRAL MOUNTAINS
  
CITY           SKY/WX    TMP DP  RH WIND       PRES   REMARKS
FARMINGTON     FAIR      62  46  55 VRB5      30.15F                  
LOS ALAMOS       N/A     59  47  65 NE5       30.25S                  
SANTA FE       FAIR      64  47  53 N8        30.20S                  
TAOS           FAIR      57  44  62 VRB5      30.26S                  
ANGEL FIRE       N/A     53  43  70 S5        30.30F                  

$$
NMZ402-403-502-505>509-181600-
WESTCENTRAL MOUNTAINS/SOUTHWEST MOUNTAINS
  
CITY           SKY/WX    TMP DP  RH WIND       PRES   REMARKS
GALLUP         FAIR      60  40  47 W5        30.21S                  
GRANTS         FAIR      56  46  69 CALM      30.24S                  
SILVER CITY    FAIR      77  30  18 W7        30.16S                  

$$
NMZ407-409-411-412-181600-
SOUTHERN DESERTS
  
CITY           SKY/WX    TMP DP  RH WIND       PRES   REMARKS
DEMING         FAIR      77  34  21 SW6       30.09R                  
LAS CRUCES     FAIR      76  42  29 CALM      30.10R                  
HOLLOMAN AFB   FAIR      77  46  33 SW8       30.09R                  
ALAMOGORDO     FAIR      73  45  35 SW3       30.08S                  
T OR C         FAIR      77  40  26 NE3       30.11R                  

$$
NMZ519>523-181600-
CENTRAL VALLEYS/CENTRAL HIGHLANDS
  
CITY           SKY/WX    TMP DP  RH WIND       PRES   REMARKS
ALBUQUERQUE    FAIR      65  48  54 NW5       30.16R                  
DOUBLE EAGLE   MOSUNNY   64  48  55 N3        30.18R                  
MORIARTY ARPT  FAIR      64  49  57 CALM      30.20F                  
CLINES CORNERS FAIR      66  44  45 W8        30.23S                  
BELEN          FAIR      66  45  45 CALM      30.16S                  
SOCORRO        FAIR      69  45  42 N14       30.13S                  

$$
NMZ524>526-539-540-181600-
SOUTHCENTRAL MOUNTAINS
  
CITY           SKY/WX    TMP DP  RH WIND       PRES   REMARKS
RUIDOSO        FAIR      66  48  52 NE5       30.23F                  

$$
NMZ527>531-181600-
NORTHEAST HIGHLANDS/NORTHEAST PLAINS
  
CITY           SKY/WX    TMP DP  RH WIND       PRES   REMARKS
LAS VEGAS      FAIR      60  48  64 CALM      30.20R                  
RATON          NOT AVBL                                               
CLAYTON          N/A    N/A N/A N/A MISG      30.07S                  

$$
NMZ532>537-181600-
EASTCENTRAL PLAINS
  
CITY           SKY/WX    TMP DP  RH WIND       PRES   REMARKS
SANTA ROSA     FAIR      68  56  66 SW7       30.10S                  
TUCUMCARI      FAIR      72  56  57 W10       30.04S                  
CANNON AFB       N/A     68  56  64 SW13      30.10R                  
CLOVIS AIRPORT FAIR      69  56  62 SW16      30.08F                  

$$
NMZ028-029-538-181600-
SOUTHEAST PLAINS
  
CITY           SKY/WX    TMP DP  RH WIND       PRES   REMARKS
ROSWELL        FAIR      75  56  51 S12       30.04F                  
ARTESIA        FAIR      72  59  64 CALM      30.07F                  
CARLSBAD       CLOUDY    73  58  59 SE6       30.03S                  
HOBBS          PTSUNNY   73  61  64 SE10      30.06S                  


$$